Lexington, NE

10:16 PM CDT on October 22, 2017 (GMT -0500)
Kelly

Weather History for KLXN - January, 2013

Change the Weather History Date:

Tuesday, January 1, 2013

  Actual Average Record
Temperature  
Mean Temperature 18 °F -  
Max Temperature 27 °F 38 °F 60 °F (1997)
Min Temperature 9 °F 13 °F -2 °F (2001)
Degree Days  
Heating Degree Days 46    
Moisture  
Dew Point 15 °F    
Average Humidity 86    
Maximum Humidity 94    
Minimum Humidity 72    
Precipitation  
Precipitation 0.00 in - - ()
Sea Level Pressure  
Sea Level Pressure 30.14 in    
Wind  
Wind Speed 4 mph (WSW)    
Max Wind Speed 12 mph    
Max Gust Speed -    
Visibility 8 miles    
Events Fog    
Averages and records for this station are not official NWS values.
T = Trace of Precipitation, MM = Missing Value Source: NWS Daily Summary

Daily Weather History Graph

Daily Weather History Graph

Search for Another Location

Airport or City:

Trip Planner

Search our weather history database for the weather conditions in past years. The results will help you decide how hot, cold, wet, or windy it might be!

Date:

Astronomy

Jan. 01, 2013 Rise Set
Actual Time 8:03 AM CST 5:22 PM CST
Civil Twilight 7:32 AM CST 5:53 PM CST
Nautical Twilight 6:58 AM CST 6:27 PM CST
Astronomical Twilight 6:24 AM CST 7:01 PM CST
Moon 9:57 PM CST (1/1) 10:14 AM CST (1/1)
Length of Visible Light 10h 20m
Length of Day
9h 19m
Waning Gibbous, 83% of the Moon is Illuminated
Jan 1
Waning Gibbous
Jan 4
Last Quarter
Jan 11
New
Jan 18
First Quarter
Jan 26
Full

Hourly Weather History & Observations

Time (CST) Temp. Windchill Dew Point Humidity Pressure Visibility Wind Dir Wind Speed Gust Speed Precip Events Conditions
12:15 AM 18.7 °F - 16.7 °F 92% 30.17 in 10.0 mi Calm Calm - N/A   Overcast
12:35 AM 18.5 °F - 16.3 °F 91% 30.17 in 7.0 mi Calm Calm - N/A   Overcast
12:55 AM 18.5 °F - 16.5 °F 92% 30.17 in 10.0 mi Calm Calm - N/A   Overcast
1:15 AM 18.5 °F - 16.7 °F 93% 30.17 in 7.0 mi Calm Calm - N/A   Overcast
1:35 AM 18.5 °F - 16.5 °F 92% 30.17 in 7.0 mi Calm Calm - N/A   Overcast
2:15 AM 18.5 °F - 16.5 °F 92% 30.18 in 7.0 mi Calm Calm - N/A   Overcast
2:35 AM 18.5 °F - 16.7 °F 93% 30.18 in 7.0 mi Calm Calm - N/A   Overcast
2:55 AM 18.5 °F 13.3 °F 16.7 °F 93% 30.19 in 7.0 mi NW 3.5 mph - N/A   Overcast
3:15 AM 18.9 °F 13.7 °F 17.1 °F 93% 30.19 in 7.0 mi WNW 3.5 mph - N/A   Overcast
3:35 AM 18.5 °F 10.4 °F 16.7 °F 93% 30.19 in 7.0 mi NW 5.8 mph - N/A   Overcast
3:55 AM 18.5 °F 13.3 °F 16.7 °F 93% 30.19 in 7.0 mi NW 3.5 mph - N/A   Overcast
4:15 AM 18.5 °F - 16.9 °F 93% 30.19 in 7.0 mi Calm Calm - N/A   Overcast
4:35 AM 18.9 °F - 17.2 °F 93% 30.18 in 7.0 mi Calm Calm - N/A   Overcast
5:15 AM 19.4 °F 14.3 °F 17.6 °F 93% 30.17 in 5.0 mi West 3.5 mph - N/A   Overcast
5:35 AM 19.4 °F 11.5 °F 17.6 °F 93% 30.17 in 5.0 mi West 5.8 mph - N/A   Overcast
6:15 AM 19.2 °F 12.5 °F 17.6 °F 93% 30.17 in 5.0 mi West 4.6 mph - N/A   Overcast
6:35 AM 18.9 °F 13.7 °F 17.4 °F 94% 30.17 in 4.0 mi West 3.5 mph - N/A   Overcast
7:15 AM 18.0 °F 11.1 °F 16.0 °F 92% 30.17 in 2.5 mi SW 4.6 mph - N/A   Overcast
7:35 AM 16.0 °F 10.4 °F 14.0 °F 92% 30.18 in 0.2 mi SSW 3.5 mph - N/A Fog Light Freezing Fog
7:55 AM 15.1 °F 9.4 °F 13.1 °F 92% 30.18 in 0.2 mi SW 3.5 mph - N/A Fog Light Freezing Fog
8:15 AM 14.0 °F 8.2 °F 11.5 °F 90% 30.18 in 0.2 mi SSW 3.5 mph - N/A Fog Light Freezing Fog
8:35 AM 12.2 °F 4.3 °F 9.7 °F 90% 30.19 in 1.0 mi South 4.6 mph - N/A   Overcast
8:55 AM 11.8 °F 5.7 °F 9.1 °F 89% 30.20 in 4.0 mi SSE 3.5 mph - N/A   Mostly Cloudy
9:15 AM 12.2 °F 6.1 °F 9.5 °F 89% 30.20 in 5.0 mi South 3.5 mph - N/A   Overcast
9:35 AM 13.3 °F 7.3 °F 10.9 °F 90% 30.20 in 5.0 mi SSW 3.5 mph - N/A   Overcast
9:55 AM 15.3 °F 6.6 °F 13.1 °F 91% 30.21 in 4.0 mi SW 5.8 mph - N/A   Overcast
10:15 AM 16.7 °F 7.2 °F 14.7 °F 92% 30.21 in 4.0 mi SW 6.9 mph - N/A   Scattered Clouds
10:35 AM 17.6 °F 7.3 °F 15.4 °F 91% 30.21 in 7.0 mi SW 8.1 mph - N/A   Clear
10:55 AM 18.5 °F 9.3 °F 16.5 °F 92% 30.21 in 7.0 mi SSW 6.9 mph - N/A   Clear
11:15 AM 20.3 °F 11.5 °F 18.5 °F 93% 30.21 in 10.0 mi WSW 6.9 mph - N/A   Clear
11:35 AM 20.8 °F 9.7 °F 19.0 °F 93% 30.20 in 10.0 mi SW 10.4 mph - N/A   Clear
12:15 PM 23.7 °F 14.7 °F 19.6 °F 84% 30.18 in 10.0 mi SW 8.1 mph - N/A   Clear
12:35 PM 24.6 °F 17.7 °F 18.7 °F 78% 30.17 in 10.0 mi WSW 5.8 mph - N/A   Clear
12:55 PM 25.9 °F 16.6 °F 19.4 °F 76% 30.17 in 10.0 mi West 9.2 mph - N/A   Clear
1:15 PM 26.1 °F 16.2 °F 18.9 °F 74% 30.15 in 10.0 mi WSW 10.4 mph - N/A   Clear
1:35 PM 26.2 °F 17.1 °F 18.5 °F 73% 30.14 in 10.0 mi WSW 9.2 mph - N/A   Clear
1:55 PM 26.6 °F 17.5 °F 18.7 °F 72% 30.13 in 10.0 mi WSW 9.2 mph - N/A   Clear
2:15 PM 26.4 °F 18.9 °F 18.5 °F 72% 30.13 in 10.0 mi WSW 6.9 mph - N/A   Clear
2:35 PM 27.1 °F 16.9 °F 19.4 °F 73% 30.13 in 10.0 mi SW 11.5 mph - N/A   Clear
2:55 PM 26.6 °F 16.8 °F 19.0 °F 73% 30.12 in 10.0 mi SW 10.4 mph - N/A   Clear
3:15 PM 27.0 °F 16.7 °F 19.2 °F 73% 30.12 in 10.0 mi SW 11.5 mph - N/A   Clear
3:35 PM 27.3 °F 17.7 °F 19.4 °F 72% 30.12 in 10.0 mi SW 10.4 mph - N/A   Clear
3:55 PM 27.1 °F 17.5 °F 19.4 °F 73% 30.11 in 10.0 mi SW 10.4 mph - N/A   Clear
4:15 PM 26.4 °F 16.0 °F 19.0 °F 74% 30.11 in 10.0 mi SW 11.5 mph - N/A   Clear
4:35 PM 25.9 °F 16.6 °F 18.9 °F 75% 30.11 in 10.0 mi SW 9.2 mph - N/A   Clear
4:55 PM 24.8 °F 17.9 °F 18.3 °F 76% 30.11 in 10.0 mi WSW 5.8 mph - N/A   Clear
5:15 PM 23.4 °F 14.3 °F 17.6 °F 79% 30.11 in 10.0 mi WSW 8.1 mph - N/A   Clear
5:35 PM 21.0 °F 12.4 °F 15.8 °F 80% 30.11 in 10.0 mi WSW 6.9 mph - N/A   Clear
5:55 PM 20.1 °F 10.3 °F 15.3 °F 81% 30.10 in 10.0 mi WSW 8.1 mph - N/A   Clear
6:15 PM 18.7 °F 8.6 °F 14.4 °F 83% 30.10 in 10.0 mi WSW 8.1 mph - N/A   Clear
6:35 PM 17.8 °F 8.5 °F 13.5 °F 83% 30.10 in 10.0 mi West 6.9 mph - N/A   Clear
6:55 PM 16.9 °F 5.5 °F 12.7 °F 84% 30.10 in 10.0 mi WSW 9.2 mph - N/A   Clear
7:15 PM 15.8 °F 5.1 °F 11.8 °F 84% 30.11 in 10.0 mi WSW 8.1 mph - N/A   Clear
7:35 PM 15.6 °F 4.9 °F 11.3 °F 83% 30.11 in 10.0 mi WSW 8.1 mph - N/A   Clear
7:55 PM 15.6 °F 5.9 °F 11.3 °F 83% 30.11 in 10.0 mi WSW 6.9 mph - N/A   Clear
8:15 PM 15.6 °F 5.9 °F 11.3 °F 83% 30.11 in 10.0 mi WSW 6.9 mph - N/A   Clear
8:35 PM 14.4 °F 5.5 °F 10.2 °F 84% 30.10 in 10.0 mi WNW 5.8 mph - N/A   Clear
8:55 PM 14.7 °F 3.8 °F 10.4 °F 83% 30.09 in 10.0 mi West 8.1 mph - N/A   Clear
9:15 PM 14.0 °F 3.9 °F 9.5 °F 82% 30.09 in 10.0 mi WSW 6.9 mph - N/A   Clear
9:35 PM 12.6 °F 4.8 °F 8.6 °F 84% 30.08 in 10.0 mi WSW 4.6 mph - N/A   Clear
9:55 PM 10.8 °F 4.5 °F 7.3 °F 86% 30.08 in 10.0 mi West 3.5 mph - N/A   Clear
10:15 PM 13.1 °F 7.1 °F 10.0 °F 88% 30.08 in 10.0 mi WSW 3.5 mph - N/A   Clear
10:35 PM 13.8 °F 4.9 °F 10.4 °F 86% 30.07 in 10.0 mi West 5.8 mph - N/A   Clear
10:55 PM 11.3 °F - 8.1 °F 87% 30.07 in 10.0 mi Calm Calm - N/A   Clear
11:15 PM 11.3 °F 3.3 °F 8.1 °F 87% 30.06 in 10.0 mi WNW 4.6 mph - N/A   Clear
11:35 PM 12.0 °F 4.1 °F 9.0 °F 88% 30.06 in 10.0 mi West 4.6 mph - N/A   Clear
11:55 PM 9.5 °F - 6.4 °F 87% 30.07 in 10.0 mi Calm Calm - N/A   Clear